Regional Weather Roundup
Issued by NWS Charleston, WV

Home | Current Version | Previous Version | Graphics & Text | Print | Product List | Glossary On
Versions: 1 2 3 4 5 6 7 8 9 10 11 12 13 14 15 16 17 18 19 20 21 22 23 24 25 26 27 28 29 30 31 32 33 34 35 36 37 38 39 40 41 42 43 44 45 46 47 48 49 50
000
ASUS41 KRLX 290610
RWRRLX
West Virginia Regional Weather Roundup
National Weather Service Charleston WV
200 AM EDT TUE JUL 29 2014

Note: "fair" indicates few or no clouds below 12,000 feet with no
significant weather and/or obstructions to visibility.

WVZ003-290700-
Northern Panhandle of West Virginia

CITY           SKY/WX    TMP DP  RH WIND       PRES   REMARKS
WHEELING       CLOUDY    56  51  84 N5        29.97S
$$

WVZ009-290700-
Northwest West Virginia

CITY           SKY/WX    TMP DP  RH WIND       PRES   REMARKS
PARKERSBURG      N/A    N/A N/A N/A MISG        N/A
$$

WVZ006-290700-
Western West Virginia

CITY           SKY/WX    TMP DP  RH WIND       PRES   REMARKS
HUNTINGTON     CLEAR     59  59 100 W3        29.96S
$$

WVZ015-290700-
West Central West Virginia

CITY           SKY/WX    TMP DP  RH WIND       PRES   REMARKS
CHARLESTON     MOCLDY    63  63 100 CALM      29.95S
$$

WVZ031-290700-
North Central West Virginia

CITY           SKY/WX    TMP DP  RH WIND       PRES   REMARKS
CLARKSBURG     MOCLDY    55  53  93 CALM      29.96S
MORGANTOWN     CLOUDY    59  53  80 CALM      29.97S
$$

WVZ035-042-045-290700-
South Central West Virginia

CITY           SKY/WX    TMP DP  RH WIND       PRES   REMARKS
BECKLEY        LGT RAIN  59  56  89 CALM      30.00S
BLUEFIELD      CLOUDY    61  55  82 W6        30.01F
LEWISBURG      CLOUDY    61  55  82 CALM      29.98S
$$

WVZ047-290700-
Northern Mountains of West Virginia

CITY           SKY/WX    TMP DP  RH WIND       PRES   REMARKS
ELKINS         FOG       55  53  93 CALM      29.98S VSB 1/2
$$

WVZ052-290700-
Eastern Panhandle of West Virginia

CITY           SKY/WX    TMP DP  RH WIND       PRES   REMARKS
MARTINSBURG    CLEAR     64  52  64 NW6       29.89R
PETERSBURG     CLEAR     53  49  86 CALM      29.95S
$$


USA.gov is the U.S. government's official web portal to all federal, state and local government web resources and services.